Tracking 29510 objects as of 16-Sep-2024
HD Live streaming from Space Station
objects crossing your sky now

THOR ABLESTAR DEB

Track THOR ABLESTAR DEB now!
10-day predictions


NORAD ID: 548
Int'l Code: 1961-015GH
Perigee: 586.2 km
Apogee: 746.9 km
Inclination: 66.7 °
Period: 97.9 minutes
Semi major axis: 7037 km
RCS: 0.028 m2 (small)
Launch date: June 29, 1961
Source: United States (US)
Launch site: AIR FORCE EASTERN TEST RANGE (AFETR)

Note: This is SATELLITE DEBRIS
Your satellite tracking list
Your tracking list is empty




NASA's NSSDC Master Catalog

Two Line Element Set (TLE):
1 00548U 61015GH  24259.82483693  .00007673  00000-0  11568-2 0  9991
2 00548  66.6726 303.3932 0114197 249.6515 109.2305 14.70524116309609
Source of the keplerian elements: AFSPC